Temp
88 82 79 85 88 89 86 85 83 87 93 89 87 89 92 97 97 96 98 98 98 98 100 102 100 99 99 98 95 92 91 88 89 86 79 77 76 78 77 77 78 76 75 75
84 77 87 90 88 84 83 81 82 88 91 87 86 86 92 95 94 97 97 98 93 94 99 94 93 95 94 87 86 84 85 82 82 82 79 79 80 77 80 79 74 73 72 71
80 85 89 86 82 80 81 80 81 82 88 88 85 83 86 91 93 94 92 91 91 90 93 91 89 87 87 85 83 78 76 74 76 77 75 75 76 76 74 73 72 70 71 71
84 90 84 83 79 83 76 87 85 83 81 74 86 71 83 87 87 88 88 88 87 87 89 91 86 82 80 80 79 76 74 73 75 76 76 75 75 68 69 73 73 71 70 70
81 83 82 78 81 86 80 87 84 83 80 79 80 75 82 86 82 84 84 83 83 84 87 85 84 80 79 79 77 75 73 72 70 68 70 75 71 76 74 70 69 69 70 72
85 93 88 84 87 87 88 81 82 82 80 68 77 77 79 82 85 84 83 82 82 83 82 80 80 80 79 80 78 74 69 68 70 71 70 69 68 69 69 66 70 73 75 74
80 83 87 88 82 86 83 76 67 65 67 66 81 76 80 83 86 87 83 82 83 84 82 80 80 80 78 77 77 74 71 69 70 70 70 69 67 67 69 66 70 67 69 69
72 69 82 87 84 79 79 78 69 58 63 70 79 69 79 86 87 87 86 84 83 85 84 82 81 80 79 77 76 74 72 71 71 70 68 67 66 70 70 68 67 69 69 70
74 73 89 87 87 86 80 74 84 72 75 70 73 77 82 85 83 84 84 83 81 82 81 80 79 79 77 75 74 74 73 71 70 68 68 67 67 66 67 66 66 69 67 68
80 70 84 86 89 87 83 87 71 73 59 58 70 72 72 77 80 83 83 82 80 81 80 78 79 76 76 75 73 74 74 71 70 69 69 67 68 68 67 67 65 65 65 65
84 75 77 83 78 78 80 77 78 77 74 62 61 67 81 81 83 82 85 86 82 81 80 79 78 76 76 76 76 73 73 71 69 68 68 67 65 67 66 64 66 65 64 65
83 76 70 75 85 87 85 78 78 68 64 71 69 68 86 87 87 87 87 87 85 84 81 80 78 76 74 74 73 71 70 71 70 68 67 62 65 63 64 62 64 64 63 65
81 73 64 70 78 81 78 81 82 78 75 66 61 67 85 87 86 87 87 87 84 82 81 80 77 75 74 73 71 71 70 69 67 67 66 63 63 64 64 64 64 64 64 65
77 74 68 64 71 78 71 76 80 76 68 68 70 74 78 80 82 84 85 85 83 81 79 78 75 74 73 72 71 69 68 67 65 61 65 64 64 64 64 65 64 64 63 64
78 68 73 75 79 81 78 76 77 74 75 69 74 69 73 78 82 84 85 85 81 78 77 76 74 73 72 70 69 69 66 63 62 65 65 64 64 65 65 63 62 62 63 64
79 68 73 71 78 79 75 78 78 78 78 77 77 74 85 83 84 83 85 84 80 78 77 76 74 73 71 70 69 67 62 63 63 64 62 66 65 65 65 65 63 63 63 63
73 71 69 65 75 75 68 76 77 78 81 79 71 77 82 80 79 81 81 83 80 78 77 75 73 72 71 69 67 63 64 64 64 64 66 66 66 65 65 65 64 63 62 62
72 69 72 66 69 56 75 85 84 79 80 81 81 80 81 80 78 81 83 83 80 79 76 75 74 72 70 68 65 63 63 59 63 65 66 67 67 66 66 65 64 63 63 62
79 72 67 63 63 65 70 77 77 75 74 81 79 80 80 80 78 74 79 82 79 78 76 75 74 71 68 66 64 61 58 64 66 66 66 66 67 65 65 65 63 63 62 62
77 76 70 65 50 50 71 80 85 83 67 82 82 80 80 80 73 70 76 78 76 76 75 72 71 69 66 63 63 61 65 65 64 65 65 66 66 64 64 64 63 63 63 62
67 68 65 65 61 67 75 74 81 63 67 80 81 81 80 75 72 73 74 74 74 73 72 71 68 66 64 63 61 62 64 64 64 65 66 66 66 65 65 64 64 63 63 63
65 64 64 65 59 55 80 79 70 73 79 80 81 81 76 73 73 73 72 71 71 70 68 70 67 63 62 64 64 63 60 64 65 65 65 66 65 66 66 63 63 64 63 63
64 71 68 68 66 75 78 79 80 82 80 81 81 81 78 76 74 73 71 70 69 69 69 69 66 65 64 62 63 61 64 65 65 65 65 65 65 66 65 64 63 65 65 65
74 76 72 68 73 73 75 80 82 83 82 83 83 80 79 75 75 72 71 70 70 69 67 69 66 64 62 62 65 67 67 66 65 64 64 65 65 64 65 66 67 65 65 62
64 75 72 71 74 76 78 80 80 81 82 81 82 80 79 77 74 74 72 71 70 69 69 68 66 64 65 66 66 68 67 65 64 63 63 63 64 63 64 67 66 65 64 59
69 68 69 66 74 75 76 79 80 78 78 79 78 77 78 78 75 75 72 72 71 69 69 67 66 67 67 67 67 67 67 66 63 62 64 63 62 65 66 66 65 46 47 46
MSLP
1006.92 1006.10 1004.71 1003.92 1003.63 1002.84 1002.63 1001.78 1001.36 1001.29 1001.67 1002.42 1002.12 1001.82 1001.74 1001.67 1002.42 1002.73 1002.90 1003.20 1003.45 1003.69 1004.59 1005.66 1007.04 1008.62 1009.31 1010.07 1010.89 1012.01 1012.70 1013.70 1014.30 1015.10 1016.01 1016.42 1016.74 1017.10 1017.81 1018.06 1018.60 1018.54 1018.78 1018.98
1005.71 1005.08 1004.22 1003.94 1003.68 1003.81 1003.74 1002.99 1002.06 1001.59 1001.93 1003.07 1002.60 1002.08 1001.91 1001.90 1002.33 1002.92 1003.06 1003.22 1004.08 1003.85 1002.01 1006.35 1008.13 1009.21 1010.23 1011.72 1012.81 1013.54 1014.02 1014.86 1015.47 1015.81 1016.47 1016.71 1016.77 1017.43 1017.68 1018.13 1018.96 1019.29 1019.31 1019.07
1004.41 1003.71 1004.11 1004.00 1004.43 1004.49 1003.82 1003.23 1002.70 1002.20 1002.19 1003.05 1002.98 1001.86 1001.92 1002.26 1003.38 1003.85 1004.96 1005.71 1006.04 1006.45 1006.02 1007.54 1009.58 1010.97 1012.02 1012.74 1013.74 1014.77 1015.36 1015.87 1016.52 1016.69 1017.28 1017.55 1017.58 1017.79 1018.19 1018.58 1019.07 1019.25 1019.40 1019.24
1003.83 1003.72 1004.17 1004.14 1004.40 1004.26 1003.52 1003.37 1003.20 1002.79 1002.61 1001.96 1002.15 1001.30 1000.67 1001.92 1003.55 1004.76 1005.80 1006.55 1007.67 1008.19 1008.43 1008.81 1010.68 1012.31 1013.38 1014.33 1015.10 1015.91 1016.42 1016.92 1017.18 1017.40 1017.37 1017.43 1017.50 1018.12 1018.63 1018.59 1018.86 1019.12 1019.29 1019.12
1003.07 1003.35 1003.52 1004.00 1003.96 1003.91 1003.57 1003.16 1003.35 1003.32 1002.83 1002.47 1001.91 1001.81 1000.86 1002.12 1003.27 1004.75 1006.64 1007.98 1008.99 1009.62 1009.71 1010.68 1011.90 1013.21 1014.34 1015.07 1015.70 1016.49 1017.10 1017.56 1017.96 1018.23 1018.25 1018.01 1018.46 1018.20 1018.64 1019.05 1019.05 1018.93 1018.67 1018.60
1002.93 1002.86 1003.34 1003.65 1003.74 1003.83 1003.79 1004.30 1003.97 1003.62 1003.08 1002.24 1001.94 1001.46 1000.71 1001.19 1002.40 1004.60 1007.26 1008.57 1009.59 1010.50 1011.39 1012.29 1013.06 1013.82 1014.60 1015.39 1016.13 1017.08 1017.92 1018.51 1018.72 1018.81 1019.02 1019.06 1019.10 1019.04 1018.84 1019.21 1018.63 1018.33 1018.01 1018.03
1003.09 1002.70 1003.35 1003.55 1003.31 1003.72 1003.94 1003.91 1003.12 1002.90 1002.19 1001.46 1001.13 1001.36 1001.36 1002.87 1003.63 1004.51 1006.87 1008.50 1009.70 1010.52 1011.47 1012.30 1012.99 1013.80 1014.68 1015.51 1016.32 1017.23 1017.88 1018.47 1018.82 1019.01 1019.23 1019.44 1019.59 1019.57 1019.10 1019.46 1018.88 1019.18 1018.54 1018.25
1001.94 1001.96 1002.20 1002.86 1002.29 1002.68 1003.27 1003.04 1002.02 1001.50 1000.88 1000.47 1001.26 1001.49 1001.58 1003.29 1004.62 1005.92 1007.09 1008.56 1009.66 1010.13 1011.17 1012.05 1012.99 1013.88 1014.76 1015.74 1016.56 1017.31 1017.88 1018.33 1018.82 1019.21 1019.60 1019.93 1020.01 1019.54 1019.35 1019.55 1019.61 1018.96 1018.64 1018.50
1000.76 1000.91 1000.76 1001.81 1002.58 1002.45 1002.04 1002.46 1002.28 1002.00 1001.62 1001.21 1001.06 1001.73 1002.73 1003.62 1004.62 1006.03 1007.03 1008.24 1009.43 1010.27 1011.35 1012.28 1013.32 1014.22 1015.17 1016.13 1016.87 1017.35 1017.84 1018.47 1019.06 1019.50 1019.70 1019.89 1020.01 1019.94 1019.95 1019.79 1019.61 1019.08 1018.96 1018.84
1000.84 1000.58 1000.75 1001.20 1002.06 1002.30 1001.93 1002.00 1002.45 1002.67 1002.19 1001.58 1001.19 1000.99 1000.96 1002.72 1003.79 1005.29 1006.43 1007.64 1009.18 1010.33 1011.40 1012.54 1013.42 1014.56 1015.46 1016.43 1017.18 1017.59 1017.95 1018.59 1019.10 1019.46 1019.64 1019.79 1019.86 1019.93 1019.93 1019.91 1019.62 1019.40 1019.19 1019.02
1001.27 1001.59 1000.56 1001.21 1001.35 1001.15 1001.62 1001.81 1001.87 1002.08 1002.12 1001.83 1001.63 1001.33 1001.68 1002.45 1003.26 1004.32 1005.47 1006.85 1008.70 1009.96 1011.27 1012.50 1013.79 1014.95 1015.71 1016.37 1016.97 1017.72 1018.19 1018.67 1019.11 1019.68 1019.67 1019.83 1019.98 1019.94 1020.01 1019.90 1019.63 1019.47 1019.27 1018.81
1001.21 1001.66 1000.92 1000.90 1001.15 1001.41 1001.05 1001.50 1001.93 1002.07 1002.55 1002.47 1002.32 1001.75 1002.38 1002.35 1003.04 1004.16 1005.00 1006.48 1008.30 1009.74 1011.23 1012.56 1013.93 1015.10 1015.92 1016.43 1017.24 1017.99 1018.50 1018.78 1019.15 1019.77 1019.91 1020.20 1020.28 1020.30 1019.98 1019.99 1019.61 1019.60 1019.27 1018.66
1001.26 1001.49 1001.66 1000.66 1000.99 1001.31 1000.94 1001.05 1001.28 1001.94 1002.58 1002.28 1002.04 1002.14 1002.32 1002.61 1003.22 1004.19 1004.90 1006.41 1008.42 1009.81 1011.22 1012.53 1013.92 1015.02 1015.81 1016.70 1017.48 1018.05 1018.58 1019.07 1019.68 1020.00 1020.05 1020.35 1020.32 1020.16 1019.97 1019.87 1019.70 1019.53 1019.30 1018.69
1001.45 1001.56 1001.74 1000.59 999.92 1000.33 1001.08 1001.29 1001.43 1001.94 1002.17 1002.27 1001.97 1001.77 1002.44 1003.05 1003.47 1004.23 1005.16 1006.54 1008.44 1009.98 1011.35 1012.53 1013.88 1014.99 1015.92 1016.85 1017.61 1018.26 1018.92 1019.55 1020.11 1020.54 1020.23 1020.12 1019.92 1019.99 1019.84 1019.79 1019.64 1019.54 1019.31 1018.77
1001.58 1001.50 1001.66 1001.33 1000.38 999.73 999.69 1000.44 1001.03 1001.17 1001.80 1001.79 1001.30 1002.44 1003.31 1003.75 1004.00 1004.48 1005.56 1006.78 1008.52 1010.08 1011.47 1012.62 1013.90 1015.08 1016.13 1017.08 1017.98 1018.56 1019.32 1020.08 1020.43 1019.92 1019.93 1019.99 1020.07 1019.88 1019.74 1019.78 1019.80 1019.57 1019.20 1018.86
1001.57 1001.71 1001.84 1001.09 1000.63 1000.16 999.74 999.79 1000.20 1000.72 1001.11 1001.40 1001.65 1002.03 1002.63 1004.20 1004.79 1005.04 1005.58 1006.46 1008.36 1010.14 1011.44 1012.73 1013.96 1015.14 1016.25 1017.19 1018.03 1018.82 1019.72 1019.97 1020.23 1019.95 1019.93 1019.70 1019.75 1019.76 1019.49 1019.39 1019.44 1019.21 1019.06 1018.88
1001.36 1001.57 1001.37 1000.75 1000.52 1000.19 999.93 999.56 999.67 1000.07 1000.66 1001.03 1001.76 1002.48 1003.35 1004.37 1005.12 1005.69 1006.48 1006.88 1008.33 1009.94 1011.49 1012.93 1014.18 1015.33 1016.37 1017.45 1018.48 1019.38 1019.65 1020.14 1020.03 1019.87 1019.51 1019.41 1019.48 1019.40 1019.18 1019.03 1018.98 1018.89 1018.92 1018.78
1000.97 1001.51 1001.01 1000.78 1000.51 1000.15 999.30 999.23 999.38 1000.01 1000.61 1001.28 1001.91 1003.41 1004.11 1005.07 1006.27 1006.92 1007.39 1007.37 1008.80 1010.20 1011.79 1013.19 1014.42 1015.67 1016.88 1018.05 1019.10 1019.62 1019.89 1020.12 1019.75 1019.50 1019.31 1019.10 1019.14 1018.97 1018.99 1018.78 1018.54 1018.54 1018.57 1018.45
1000.75 1001.10 1000.76 1000.38 1000.58 1001.43 1000.62 1000.10 1000.17 1000.60 1001.08 1001.89 1002.48 1003.55 1004.93 1006.02 1007.38 1008.30 1008.77 1008.90 1009.75 1011.04 1012.38 1013.69 1014.82 1016.21 1017.54 1018.58 1019.34 1019.77 1020.04 1019.59 1019.40 1019.18 1019.20 1019.16 1019.07 1018.95 1018.72 1018.43 1018.42 1018.38 1018.26 1018.10
1000.78 1000.84 1000.65 1000.84 1001.10 1000.25 999.94 1000.11 1000.56 1001.08 1001.53 1001.99 1003.00 1004.03 1004.78 1006.20 1006.70 1008.91 1009.97 1010.48 1011.27 1012.23 1013.35 1014.53 1015.74 1017.02 1018.21 1019.11 1019.55 1019.74 1019.23 1019.41 1019.18 1019.20 1019.31 1019.27 1019.08 1018.96 1018.74 1018.56 1018.50 1018.28 1018.05 1017.68
1000.56 1000.50 1000.29 1000.29 1000.99 1000.10 1001.01 1002.66 1002.10 1002.32 1002.59 1003.09 1003.74 1004.42 1005.41 1006.65 1008.59 1010.15 1011.02 1011.74 1012.43 1013.27 1014.31 1015.53 1016.63 1017.45 1018.50 1019.29 1019.64 1019.49 1019.44 1019.20 1019.51 1019.46 1019.33 1019.15 1018.96 1018.81 1018.48 1018.38 1018.33 1018.00 1017.65 1017.40
999.73 1000.07 1000.21 1000.88 1001.16 1001.39 1001.77 1002.18 1002.49 1002.92 1003.29 1004.00 1004.59 1005.23 1006.62 1008.46 1009.75 1010.70 1011.69 1012.50 1013.28 1014.13 1015.35 1016.11 1016.98 1018.21 1019.06 1019.30 1019.35 1019.38 1019.68 1019.69 1019.49 1019.43 1019.21 1018.95 1018.85 1018.77 1018.39 1018.30 1018.07 1017.68 1017.21 1016.68
999.64 999.50 999.90 1000.75 1000.84 1001.36 1002.00 1001.86 1003.00 1003.20 1003.64 1004.29 1005.15 1006.07 1007.21 1008.57 1009.73 1010.98 1012.09 1013.00 1013.95 1014.84 1015.50 1016.47 1017.40 1018.07 1018.90 1019.52 1019.59 1019.58 1019.40 1019.48 1019.44 1019.22 1018.97 1018.83 1018.72 1018.47 1018.38 1017.93 1017.57 1016.98 1016.56 1016.33
1000.00 1000.82 1000.43 1001.32 1002.30 1002.65 1003.27 1003.10 1003.44 1003.65 1004.10 1004.97 1005.81 1006.83 1007.73 1008.78 1010.06 1011.23 1012.34 1013.35 1014.27 1015.19 1015.98 1016.58 1017.45 1018.09 1018.82 1019.36 1019.15 1019.10 1019.23 1019.44 1019.27 1018.98 1018.80 1018.58 1018.40 1018.14 1017.91 1017.71 1017.05 1016.99 1016.77 1017.18
1001.74 1001.15 1000.87 1001.62 1002.52 1002.61 1003.45 1003.35 1003.84 1004.44 1005.21 1006.01 1006.69 1007.36 1008.10 1009.18 1010.29 1011.33 1012.43 1013.50 1014.47 1015.34 1016.11 1016.96 1017.41 1018.09 1018.31 1018.65 1018.85 1019.02 1019.14 1019.35 1019.21 1019.11 1018.90 1018.67 1018.39 1018.01 1017.56 1016.97 1016.95 1016.96 1017.14 1017.64
1003.08 1002.66 1002.14 1001.64 1001.94 1002.70 1003.09 1004.08 1005.13 1005.66 1006.27 1006.90 1007.39 1007.99 1008.71 1009.42 1010.47 1011.48 1012.60 1013.65 1014.62 1015.54 1016.31 1017.02 1017.47 1017.60 1017.98 1018.37 1018.73 1019.02 1019.22 1019.30 1019.30 1019.11 1018.72 1018.79 1018.50 1017.76 1017.15 1016.91 1016.61 1017.30 1017.66 1018.19
Wind_Speed
17 14 15 18 16 18 11 12 16 6 10 11 15 17 15 8 13 14 15 16 15 15 14 12 16 11 8 8 9 9 9 7 7 7 5 5 4 3 1 1 2 5 7 8
14 17 17 15 5 7 11 14 13 7 9 9 16 16 11 13 4 10 9 10 15 11 14 17 13 3 4 10 3 2 3 4 5 3 4 5 7 4 1 1 4 6 5 5
20 11 20 7 10 13 15 15 14 14 12 12 19 18 14 9 8 4 4 6 11 12 8 14 8 6 5 5 5 6 6 5 0 4 3 2 2 3 5 3 4 3 5 7
19 18 8 11 15 14 15 15 16 13 14 12 21 14 23 16 10 7 6 6 6 4 4 7 12 8 7 7 8 8 7 5 0 1 3 5 3 5 3 3 3 4 4 4
17 17 15 15 16 14 13 8 11 15 14 15 13 9 3 13 15 13 8 8 7 5 10 10 10 10 9 7 8 8 8 8 11 11 10 2 3 2 3 3 3 3 3 1
20 12 13 16 14 13 8 7 12 14 14 15 19 12 12 15 13 14 11 10 8 10 11 11 11 11 11 11 11 11 10 8 6 6 6 5 4 5 6 5 5 6 5 4
16 20 13 14 17 12 11 12 9 10 12 13 16 16 2 9 6 12 15 12 9 11 12 12 12 12 11 11 10 10 8 8 7 7 7 6 5 4 3 7 7 8 7 6
16 18 21 14 19 16 17 16 11 9 12 13 12 10 6 13 13 11 11 11 10 11 11 12 12 11 11 10 9 10 9 8 7 7 7 7 5 4 4 5 5 6 7 8
17 18 16 21 18 19 18 17 17 15 16 10 13 11 10 15 14 11 12 12 11 11 11 12 11 11 11 9 8 8 8 8 7 6 4 5 5 5 5 5 6 7 8 9
14 10 15 17 18 20 22 9 12 8 12 13 13 13 7 17 17 14 13 12 12 11 12 11 11 10 10 9 8 7 7 7 6 6 5 4 3 5 5 6 7 9 9 10
19 10 12 12 17 20 14 15 13 13 10 11 11 0 13 12 14 15 14 14 14 13 12 11 11 10 9 9 9 7 7 6 6 4 4 3 5 5 5 5 8 10 10 10
20 9 13 17 16 18 21 20 18 11 14 9 10 12 4 3 11 12 13 13 14 12 12 11 11 10 9 8 8 7 5 6 5 4 4 4 6 5 6 6 9 10 10 10
19 11 12 15 10 7 11 13 15 17 14 15 11 9 6 8 10 10 10 13 12 12 13 12 11 10 9 8 7 7 5 6 5 3 3 3 4 4 5 6 8 9 10 11
15 12 17 14 16 17 18 18 16 13 10 13 15 11 14 13 12 11 6 14 13 11 12 12 10 9 8 7 7 6 6 4 5 1 3 4 5 6 6 6 8 9 10 10
14 18 17 20 21 15 12 20 20 17 16 16 6 1 2 5 8 8 11 9 12 11 12 12 10 9 8 7 6 6 5 3 2 4 4 5 5 6 6 6 6 6 8 9
15 13 19 21 19 19 14 14 19 19 17 16 10 6 9 13 3 1 5 13 11 11 11 11 10 10 9 8 6 5 4 3 3 3 5 5 5 6 5 6 7 7 8 9
17 15 16 19 20 13 20 18 15 14 15 13 10 2 8 7 3 1 4 2 9 10 10 10 9 8 8 7 6 5 3 2 1 4 5 5 5 6 6 7 7 8 8 9
18 18 13 15 15 19 12 10 18 13 10 7 5 9 3 6 7 4 2 3 7 9 9 10 9 8 8 7 6 5 3 1 5 4 5 5 6 7 8 7 8 7 8 9
15 16 14 13 13 8 1 6 10 9 9 5 3 5 4 7 9 8 5 7 9 10 9 9 9 10 9 8 6 5 5 7 3 4 6 6 6 8 9 8 9 9 8 9
13 14 15 10 11 21 8 16 12 10 10 14 13 6 6 9 12 11 8 10 12 12 11 11 11 11 9 7 6 6 0 3 3 5 5 7 7 8 9 9 9 8 8 10
14 13 15 11 12 5 15 4 3 12 5 9 4 4 5 6 9 13 11 11 11 12 13 13 12 10 9 7 4 3 2 3 5 5 5 6 7 8 9 7 8 9 9 9
19 15 14 14 15 10 17 17 16 9 10 9 6 8 15 14 13 13 12 12 13 14 14 13 11 9 7 6 5 3 3 3 4 4 6 6 7 7 7 8 8 9 10 10
15 14 12 4 5 14 5 5 11 8 8 7 8 6 15 12 12 12 12 12 13 13 11 10 10 10 8 5 4 6 3 3 3 5 6 7 7 8 8 8 9 9 8 9
10 4 6 7 10 14 11 8 9 6 5 7 11 7 11 11 12 12 12 12 12 11 10 9 10 9 7 6 6 0 1 3 5 6 7 7 7 6 8 8 7 8 8 8
6 12 11 8 10 12 9 10 10 8 8 7 9 9 10 12 12 12 12 12 11 10 9 9 7 7 8 6 4 2 2 3 5 6 6 6 6 8 8 6 6 6 4 4
1 4 8 3 16 8 11 9 7 8 8 9 10 10 10 11 12 12 12 11 11 10 10 9 9 6 6 5 3 2 0 3 4 6 6 7 7 8 7 8 7 6 8 8
Wind_Direction
202 221 221 231 228 262 328 289 249 196 157 217 235 214 246 210 196 235 226 232 217 207 182 193 174 205 232 190 205 188 221 156 192 177 195 191 178 167 252 117 318 3 12 5
204 228 246 236 306 277 256 262 267 251 164 196 254 246 252 258 189 264 294 309 8 330 155 82 48 95 269 83 50 123 257 149 222 152 209 220 223 73 191 34 12 21 3 2
231 236 214 220 215 238 240 244 242 254 207 204 257 258 241 152 249 226 54 2 23 10 10 107 113 84 46 61 79 64 49 73 8 113 95 113 128 196 221 106 357 356 353 358
223 246 192 233 234 224 245 223 255 252 251 233 204 250 223 163 178 190 136 85 54 360 164 99 106 101 77 73 82 94 86 97 116 213 188 219 270 5 31 316 58 334 346 327
221 229 194 227 224 228 251 334 211 244 245 254 215 247 247 152 178 144 103 85 82 57 76 91 92 100 104 113 105 100 99 69 44 43 23 348 316 48 60 340 299 271 243 243
240 200 239 223 232 237 238 227 242 244 240 235 243 254 232 188 184 120 116 112 111 113 109 108 109 113 113 112 108 103 91 85 76 74 71 56 54 14 359 357 305 356 318 330
214 244 206 238 221 184 221 217 213 212 226 239 221 220 243 91 82 110 132 128 130 128 125 126 126 119 117 117 115 120 113 107 103 86 70 58 51 31 6 346 358 320 343 342
210 211 212 200 229 190 214 222 246 217 212 229 143 207 198 115 110 117 122 122 135 130 123 121 121 124 116 108 107 118 121 112 97 84 73 54 23 37 357 19 336 311 331 325
213 232 211 199 213 243 205 215 247 285 283 282 182 116 136 147 137 150 151 149 138 133 129 127 123 121 122 113 110 109 107 98 91 99 98 69 28 20 360 344 333 357 333 330
243 246 192 204 210 222 249 202 231 230 259 254 248 244 201 169 167 175 172 168 150 147 140 135 135 126 127 120 120 108 94 99 91 74 46 28 38 6 359 345 347 345 339 328
229 226 204 204 202 221 202 233 236 253 240 232 250 81 77 166 178 180 185 169 159 162 148 149 135 140 140 147 130 125 120 116 108 89 59 38 359 17 350 348 354 350 335 331
213 209 247 203 215 228 211 213 230 234 233 256 283 286 84 141 159 173 186 159 153 159 149 149 145 146 153 141 132 119 114 115 78 71 29 29 359 312 7 358 358 350 340 337
200 208 225 226 179 216 240 241 222 232 238 268 264 237 138 159 149 172 181 149 148 159 157 155 152 162 154 147 140 134 127 84 75 3 52 352 325 328 327 346 351 349 341 346
211 207 225 226 204 196 205 237 232 233 230 237 239 241 166 176 174 168 196 147 164 175 161 161 162 164 156 156 148 135 115 100 32 309 314 304 341 338 329 334 346 343 345 349
207 219 224 239 263 260 219 201 226 223 226 250 257 117 237 267 187 190 179 175 167 181 168 165 171 166 158 158 150 133 111 79 246 290 305 340 306 304 331 343 331 318 341 346
201 217 230 237 233 244 255 213 216 217 228 236 254 258 92 120 80 317 250 176 179 186 175 170 174 168 165 162 164 131 120 208 2 307 292 306 321 299 299 308 323 321 334 338
195 215 220 232 235 212 242 240 226 215 221 244 242 320 85 142 149 193 267 214 178 184 176 169 175 167 157 147 142 152 135 134 272 274 295 313 316 306 313 319 312 319 321 321
201 212 222 232 229 226 235 246 226 213 231 221 209 164 128 48 74 84 325 160 165 154 160 160 158 153 132 135 141 132 122 231 253 298 298 316 317 319 318 313 308 315 310 312
207 213 220 226 190 199 308 183 171 209 215 228 244 153 140 119 137 95 75 92 117 130 137 143 139 132 131 138 133 127 201 231 282 304 314 327 322 320 317 318 330 320 317 311
210 227 232 239 161 239 189 169 188 172 226 191 190 216 170 177 234 102 100 101 108 116 122 128 129 124 130 130 152 200 141 325 299 344 329 316 320 320 318 329 322 318 313 301
205 210 226 224 244 302 133 88 56 204 109 88 122 154 152 91 71 115 111 110 114 118 125 122 131 137 127 131 160 159 234 352 358 312 310 304 316 319 296 324 320 314 315 318
200 209 222 223 250 214 146 165 205 91 114 115 124 116 96 115 126 127 126 125 127 124 131 140 127 123 144 154 164 103 37 289 317 314 297 322 322 315 329 318 311 314 296 293
223 212 220 276 282 107 169 164 105 131 129 127 130 119 124 138 133 133 131 133 128 142 133 127 142 138 119 132 133 207 68 347 333 310 321 320 317 305 322 310 301 300 328 339
159 240 198 118 140 149 135 118 129 140 128 116 115 128 140 138 139 134 139 136 144 133 148 140 136 149 136 168 198 157 17 354 308 326 320 320 312 330 310 313 320 332 337 355
330 168 183 150 162 126 152 130 105 103 106 123 124 140 134 140 141 144 141 146 143 148 137 148 141 155 167 168 154 174 38 325 336 338 319 317 321 298 295 315 325 313 11 354
297 38 217 159 164 195 136 115 123 137 142 142 138 125 133 137 141 141 144 144 141 148 143 151 173 164 141 149 147 188 2 333 341 317 347 337 310 311 325 318 329 90 84 121